Regional Weather Roundup
Issued by NWS San Angelo, TX

Home | Current Version | Previous Version | Text Only | Print | Product List | Glossary On
Versions: 1 2 3 4 5 6 7 8 9 10 11 12 13 14 15 16 17 18 19 20 21 22 23 24 25 26 27 28 29 30 31 32 33 34 35 36 37 38 39 40 41 42 43 44 45 46 47 48 49 50
000
ASUS44 KSJT 260910
RWRSJT
WEST CENTRAL TEXAS REGIONAL WEATHER ROUNDUP
NATIONAL WEATHER SERVICE SAN ANGELO TX
300 AM CST FRI DEC 26 2014

NOTE: "FAIR" INDICATES FEW OR NO CLOUDS BELOW 12,000 FEET WITH NO
SIGNIFICANT WEATHER AND/OR OBSTRUCTIONS TO VISIBILITY.

TXZ049-054-064>066-071>073-076>078-098-099-113-114-127-128-139-140-
154-155-168>170-261000
...LOCATIONS ACROSS WEST CENTRAL TEXAS...

CITY           SKY/WX    TMP DP  RH WIND       PRES   REMARKS
SAN ANGELO     MOCLDY    52  40  63 S13       29.83R
ABILENE        CLEAR     49  37  63 S23G30    29.81S
DYESS AFB      CLEAR     49  37  63 S22G30    29.78S
JUNCTION       MOCLDY    52  31  44 S9        29.90S
SWEETWATER     PTCLDY    49  37  64 S20G29    29.82R
BROWNWOOD      CLOUDY    45  39  81 SE7       29.88F
COLEMAN        PTSUNNY   49  43  80 S12       29.87S
SONORA         CLOUDY    50  41  71 S13       29.91S
OZONA          FAIR      48  37  66 S9        29.89R
BRADY          CLEAR     52  45  76 S16       29.85F
$$

TEXAS PANHANDLE/OKLAHOMA PANHANDLE

CITY           SKY/WX    TMP DP  RH WIND       PRES   REMARKS
AMARILLO       CLEAR     38  24  57 S14       29.74R WCI  30
BORGER         CLEAR     42  22  44 VRB6      29.73R WCI  38
CANADIAN       PTCLDY    37  27  67 N5        29.75R WCI  33
DALHART        CLEAR     28  22  78 N23G30    29.76R WCI  14
DUMAS          SUNNY     29  19  66 NE14      29.76R WCI  19
GUYMON         NOT AVBL
HEREFORD       MOSUNNY   35  26  69 SW7       29.73R WCI  29
PAMPA          SUNNY     38  23  55 S15       29.72R WCI  29
PERRYTON       CLEAR     29  24  79 N13       29.77R WCI  19
$$

SOUTHERN PANHANDLE/SOUTH PLAINS/ROLLING PLAINS

CITY           SKY/WX    TMP DP  RH WIND       PRES   REMARKS
LUBBOCK        PTCLDY    42  28  57 S10       29.77R WCI  36
SNYDER         MOCLDY    45  34  64 S9        29.81S
CHILDRESS      CLOUDY    47  27  45 S9        29.78R
SEMINOLE       MOSUNNY   39  29  68 S7        29.78S WCI  34
$$

PERMIAN BASIN

CITY           SKY/WX    TMP DP  RH WIND       PRES   REMARKS
MIDLAND        MOCLDY    48  32  53 S14       29.78R
ODESSA         MOCLDY    47  30  51 S12       29.78R
WINK           PTCLDY    46  28  49 SE13      29.76R
$$

FAR WEST/SOUTHWEST MOUNTAINS/TRANS PECOS

CITY           SKY/WX    TMP DP  RH WIND       PRES   REMARKS
ALPINE         SUNNY     53  17  23 SW13G18   29.88S
DRYDEN           N/A     44  32  62 NE8       29.84R WCI  39
EL PASO        PTCLDY    50  23  34 SW13      29.76R
FORT STOCKTON  PTCLDY    45  30  55 S20       29.78S WCI  37
GUADALUPE PASS NOT AVBL
MARFA          CLEAR     28  12  50 SE6       29.86S WCI  22
PECOS          SUNNY     36  27  67 NE5       29.75S WCI  32
$$

DALLAS/FORT WORTH METROPLEX

CITY           SKY/WX    TMP DP  RH WIND       PRES   REMARKS
DFW AIRPORT    CLOUDY    53  45  74 S12       29.94S
FTW MEACHAM    CLOUDY    52  45  77 S13       29.93R
DAL-EXECUTIVE  CLOUDY    53  45  74 SE8       29.95R
GRAND PRAIRIE  CLOUDY    55  48  79 S10       29.96S
ADDISON        CLOUDY    54  46  74 S9G16     29.97R
MESQUITE       CLOUDY    52  45  75 SE7       29.97S
LANCASTER      CLOUDY    53  45  72 S8        29.97S
$$

NORTH CENTRAL TEXAS

CITY           SKY/WX    TMP DP  RH WIND       PRES   REMARKS
SHRMAN/DENISON PTSUNNY   49  45  85 S8        29.95S
GAINESVILLE    CLOUDY    48  43  84 SE14      29.93S
BRIDGEPORT     MOSUNNY   49  43  79 S7        29.91S
DENTON         MOCLDY    51  45  79 S12       29.93S
WAXAHACHIE     CLOUDY    53  47  81 SE9       29.96S
GRANBURY       CLOUDY    50  45  81 E8        29.92F
$$

WESTERN NORTH TEXAS

CITY           SKY/WX    TMP DP  RH WIND       PRES   REMARKS
WICHITA FALLS  CLOUDY    49  34  56 S12       29.83R
VERNON         CLOUDY    47  27  44 SE6       29.83R
BRECKENRIDGE   MOSUNNY   51  38  60 S16G22    29.84S
COMANCHE       PTCLDY    50  46  84 S9G18     29.89S
$$

CENTRAL AND SOUTH CENTRAL TEXAS

CITY           SKY/WX    TMP DP  RH WIND       PRES   REMARKS
AUSTIN/BERGSTM MOCLDY    54  50  86 S9        29.96F
WACO           CLOUDY    52  47  83 SE10      29.94F
HILLSBORO      CLOUDY    54  46  76 SE15G22   29.94F
TEMPLE         CLOUDY    54  45  71 S8        29.94F
KILLEEN-GRAY   PTCLDY    55  49  81 S17       29.92F
FORT HOOD      MOCLDY    53  49  85 SE13      29.91F
GEORGETOWN     CLOUDY    55  50  82 S14       29.94F
LAGO VISTA     CLOUDY    58  51  77 S14G22    29.95F
SAN MARCOS     CLOUDY    54  48  82 S8        29.97F
NEW BRAUNFELS  CLOUDY    53  48  83 S5        29.96F
RANDOLPH AFB   CLOUDY    53  48  83 E3        29.96F
SAN ANTONIO    CLOUDY    55  48  77 CALM      29.96F
STINSON        CLOUDY    55  49  80 E3        29.94F
PLEASANTON     NOT AVBL
LA GRANGE      MOCLDY    59  54  84 SE6       29.97F
GIDDINGS       CLOUDY    58  51  78 S8        30.02S
$$

EAST TEXAS

CITY           SKY/WX    TMP DP  RH WIND       PRES   REMARKS
PARIS          CLOUDY    46  41  81 SE14      30.02R
CLARKSVILLE    NOT AVBL
TYLER          CLOUDY    51  45  79 SE8       30.02F
LONGVIEW       CLOUDY    49  45  86 SE8       30.05S
PALESTINE      CLOUDY    53  48  83 SE7       30.03S
NACOGDOCHES      N/A    N/A N/A N/A MISG        N/A
$$

TEXAS HILL COUNTRY AND EDWARDS PLATEAU

CITY           SKY/WX    TMP DP  RH WIND       PRES   REMARKS
LLANO          PTSUNNY   57  48  72 S8        29.96S
HORSESHOE BAY  CLOUDY    57  49  73 S7        29.93S
KERRVILLE      CLOUDY    54  50  87 SE8       29.95F
FREDERICKSBRG  CLOUDY    55  49  80 S12G20    29.93F
ROCKSPRINGS    PTSUNNY   48  46  93 S22G28    29.92S
HONDO          CLOUDY    52  47  83 NE6       29.97F
UVALDE         PTSUNNY   48  45  90 E9        29.94F
DEL RIO        CLOUDY    52  43  71 E12       29.89S
$$

SOUTHEAST TEXAS

CITY           SKY/WX    TMP DP  RH WIND       PRES   REMARKS
COLLEGE STN    CLOUDY    58  50  75 S14       30.00S
CALDWELL       CLOUDY    57  52  82 SE12      30.01F
CROCKETT       CLOUDY    54  50  87 CALM      30.06S
BRENHAM        MOCLDY    59  53  79 SE6       30.01S
HUNTSVILLE     CLOUDY    57  49  74 SE6       30.01F
CONROE         CLOUDY    53  49  86 SE3       30.04S
HOUSTON BUSH   CLOUDY    59  53  80 CALM      30.03S
HOUSTON HOBBY  CLOUDY    61  55  81 S6        30.02F
PERLAND        CLOUDY    63  56  78 SE6       30.04S
WHARTON        CLOUDY    61  55  81 SE7       30.00F
$$

THE UPPER TEXAS COAST

CITY           SKY/WX    TMP DP  RH WIND       PRES   REMARKS
ORANGE         CLOUDY    59  54  83 SE8       30.09F
PORT ARTHUR    CLOUDY    62  53  72 SE15G23   30.06F
GALVESTON      CLOUDY    64  58  80 S16       30.05S
ANGLETON       CLOUDY    63  57  81 S16       30.01F
BAY CITY         N/A     64  58  80 S10       30.00F
$$

TEXAS COASTAL BEND, RIO GRANDE PLAINS DEEP SOUTH TEXAS

CITY           SKY/WX    TMP DP  RH WIND       PRES   REMARKS
VICTORIA       CLOUDY    61  56  83 CALM      29.99S
BEEVILLE       CLOUDY    63  57  79 SE10      29.95F
ROCKPORT       CLOUDY    66  58  75 S13G20    29.96S
PORT ARANSAS   CLOUDY    65  60  84 S12       29.95F
PORT LAVACA    CLOUDY    64  58  82 S7        29.98S
CORPUS CHRISTI CLOUDY    65  58  78 S13       29.95S
KINGSVILLE NAS CLOUDY    64  59  83 S9        29.95S
COTULLA        MOCLDY   N/A N/A N/A E6        29.93F
LAREDO         NOT AVBL
BROWNSVILLE    CLOUDY    65  63  93 S14       29.95F
PORT ISABEL    LGT RAIN  65  63  93 S9        29.94F
HEBBRONVILLE   CLOUDY    59  55  87 SE10      29.91F
MCALLEN        CLOUDY    65  59  81 SE13      29.93F
WESLACO        CLOUDY    65  60  82 S12G20    29.92F
FALFURRIAS     CLOUDY    64  58  81 SE9       29.94S
EDINBURG       CLOUDY    66  60  82 SE8       29.93F
$$



USA.gov is the U.S. government's official web portal to all federal, state and local government web resources and services.